User: anonymous   Login
Location: Holcomb Observatory
(44.4922°N, 73.1654°W)
Time: 17:18:16
(UTC-04:00)
Language:

Cosmos 1727 Rocket - Orbit

View from above orbital plane
View from above orbital plane
View from above satellite
View from above satellite

Ground track
Ground track

The orbit data is extracted from the following two-line orbital elements,

1 16511U 86008B   16177.24253876 -.00000009  00000-0 -24857-4 0  9996
2 16511  82.9451 124.6356 0023612 196.8054 271.6815 13.75804626527195
Epoch (UTC): 25 June 2016 05:49:15
Eccentricity: 0.0023612
inclination: 82.9451°
perigee height: 961 km
apogee height: 996 km
right ascension of ascending node: 124.6356°
argument of perigee: 196.8054°
revolutions per day: 13.75804626
mean anomaly at epoch: 271.6815°
orbit number at epoch: 52719

The dashed part of the orbit path shows where the satellite is in the earth's shadow,  

DLR